West Bend, WI

5:20 AM CDT on April 19, 2018 (GMT -0500)
West Bend Municipal

Weather History for KETB - November, 2013

Change the Weather History Date:

Tuesday, November 19, 2013

  Actual Average Record
Temperature  
Mean Temperature 29 °F -  
Max Temperature 37 °F 43 °F 71 °F (1930)
Min Temperature 21 °F 29 °F 10 °F (1932)
Degree Days  
Heating Degree Days 36    
Moisture  
Dew Point 23 °F    
Average Humidity 79    
Maximum Humidity 93    
Minimum Humidity 52    
Precipitation  
Precipitation 0.00 in - - ()
Sea Level Pressure  
Sea Level Pressure 30.29 in    
Wind  
Wind Speed 2 mph (SE)    
Max Wind Speed 8 mph    
Max Gust Speed -    
Visibility 10 miles    
Events      
Averages and records for this station are not official NWS values.
T = Trace of Precipitation, MM = Missing Value Source: NWS Daily Summary

Daily Weather History Graph

Daily Weather History Graph

Search for Another Location

Airport or City:

Astronomy

Nov. 19, 2013 Rise Set
Actual Time 6:51 AM CST 4:24 PM CST
Civil Twilight 6:20 AM CST 4:55 PM CST
Nautical Twilight 5:45 AM CST 5:30 PM CST
Astronomical Twilight 5:11 AM CST 6:04 PM CST
Moon 6:14 PM CST 8:31 AM CST
Length of Visible Light 10h 35m
Length of Day
9h 32m
Waning Gibbous, 96% of the Moon is Illuminated
Nov 19
Waning Gibbous
Nov 25
Last Quarter
Dec 2
New
Dec 9
First Quarter
Dec 17
Full

Hourly Weather History & Observations

Time (CST) Temp. Windchill Dew Point Humidity Pressure Visibility Wind Dir Wind Speed Gust Speed Precip Events Conditions
12:15 AM 26.6 °F - 19.4 °F 74% 30.23 in 10.0 mi Calm Calm - N/A   Clear
12:35 AM 26.6 °F 22.6 °F 19.4 °F 74% 30.23 in 10.0 mi WNW 3.5 mph - N/A   Clear
12:55 AM 26.6 °F 22.6 °F 19.4 °F 74% 30.23 in 10.0 mi WNW 3.5 mph - N/A   Clear
1:15 AM 26.6 °F - 19.4 °F 74% 30.24 in 10.0 mi Calm Calm - N/A   Clear
1:35 AM 26.6 °F - 19.4 °F 74% 30.25 in 10.0 mi Calm Calm - N/A   Clear
1:55 AM 26.6 °F - 19.4 °F 74% 30.26 in 10.0 mi Calm Calm - N/A   Clear
2:15 AM 24.8 °F - 19.4 °F 80% 30.26 in 10.0 mi Calm Calm - N/A   Clear
2:35 AM 24.8 °F - 19.4 °F 80% 30.26 in 10.0 mi Calm Calm - N/A   Clear
2:55 AM 24.8 °F - 19.4 °F 80% 30.27 in 10.0 mi Calm Calm - N/A   Clear
3:15 AM 23.0 °F - 19.4 °F 86% 30.28 in 10.0 mi Calm Calm - N/A   Clear
3:35 AM 23.0 °F - 21.2 °F 93% 30.28 in 10.0 mi Calm Calm - N/A   Clear
3:55 AM 21.2 °F - 19.4 °F 93% 30.28 in 10.0 mi Calm Calm - N/A   Clear
4:15 AM 23.0 °F - 19.4 °F 86% 30.29 in 10.0 mi Calm Calm - N/A   Clear
4:35 AM 21.2 °F - 19.4 °F 93% 30.30 in 10.0 mi Calm Calm - N/A   Clear
4:55 AM 21.2 °F - 19.4 °F 93% 30.30 in 10.0 mi Calm Calm - N/A   Clear
5:15 AM 21.2 °F - 17.6 °F 86% 30.31 in 10.0 mi Calm Calm - N/A   Clear
5:35 AM 21.2 °F - 17.6 °F 86% 30.31 in 10.0 mi Calm Calm - N/A   Clear
5:55 AM 21.2 °F - 19.4 °F 93% 30.32 in 10.0 mi Calm Calm - N/A   Clear
6:15 AM 21.2 °F - 19.4 °F 93% 30.32 in 10.0 mi Calm Calm - N/A   Clear
6:35 AM 21.2 °F - 19.4 °F 93% 30.33 in 10.0 mi Calm Calm - N/A   Clear
6:55 AM 21.2 °F - 19.4 °F 93% 30.34 in 10.0 mi Calm Calm - N/A   Clear
7:15 AM 21.2 °F - 19.4 °F 93% 30.33 in 10.0 mi Calm Calm - N/A   Clear
7:35 AM 23.0 °F - 19.4 °F 86% 30.34 in 10.0 mi Calm Calm - N/A   Clear
7:55 AM 23.0 °F - 21.2 °F 93% 30.33 in 10.0 mi Calm Calm - N/A   Clear
8:15 AM 26.6 °F - 21.2 °F 80% 30.34 in 10.0 mi Calm Calm - N/A   Clear
8:35 AM 26.6 °F - 21.2 °F 80% 30.35 in 10.0 mi Calm Calm - N/A   Clear
8:55 AM 28.4 °F - 21.2 °F 74% 30.35 in 10.0 mi Calm Calm - N/A   Clear
9:15 AM 30.2 °F - 21.2 °F 69% 30.35 in 10.0 mi Calm Calm - N/A   Clear
9:35 AM 32.0 °F - 21.2 °F 64% 30.35 in 10.0 mi Calm Calm - N/A   Clear
9:55 AM 32.0 °F 28.7 °F 21.2 °F 64% 30.35 in 10.0 mi ENE 3.5 mph - N/A   Clear
10:15 AM 32.0 °F - 21.2 °F 64% 30.35 in 10.0 mi Calm Calm - N/A   Clear
10:35 AM 32.0 °F 28.7 °F 21.2 °F 64% 30.35 in 10.0 mi SE 3.5 mph - N/A   Clear
10:55 AM 33.8 °F 30.8 °F 21.2 °F 60% 30.34 in 10.0 mi East 3.5 mph - N/A   Clear
11:15 AM 33.8 °F 30.8 °F 21.2 °F 60% 30.34 in 10.0 mi SE 3.5 mph - N/A   Clear
11:55 AM 35.6 °F 32.8 °F 21.2 °F 56% 30.32 in 10.0 mi East 3.5 mph - N/A   Clear
12:15 PM 35.6 °F 30.7 °F 21.2 °F 56% 30.31 in 10.0 mi South 5.8 mph - N/A   Clear
12:35 PM 35.6 °F 32.8 °F 21.2 °F 56% 30.30 in 10.0 mi SE 3.5 mph - N/A   Clear
12:55 PM 35.6 °F 30.7 °F 21.2 °F 56% 30.30 in 10.0 mi SE 5.8 mph - N/A   Clear
1:15 PM 37.4 °F 33.8 °F 21.2 °F 52% 30.29 in 10.0 mi ESE 4.6 mph - N/A   Clear
1:35 PM 37.4 °F 34.9 °F 21.2 °F 52% 30.29 in 10.0 mi SE 3.5 mph - N/A   Clear
1:55 PM 35.6 °F 30.7 °F 23.0 °F 60% 30.28 in 10.0 mi ESE 5.8 mph - N/A   Clear
2:15 PM 35.6 °F 31.7 °F 23.0 °F 60% 30.28 in 10.0 mi ESE 4.6 mph - N/A   Clear
2:35 PM 35.6 °F 30.7 °F 23.0 °F 60% 30.28 in 10.0 mi SE 5.8 mph - N/A   Clear
2:55 PM 35.6 °F 31.7 °F 24.8 °F 65% 30.28 in 10.0 mi SE 4.6 mph - N/A   Clear
3:15 PM 35.6 °F 30.7 °F 24.8 °F 65% 30.29 in 10.0 mi ESE 5.8 mph - N/A   Clear
3:35 PM 33.8 °F 27.0 °F 26.6 °F 75% 30.28 in 10.0 mi ESE 8.1 mph - N/A   Clear
3:55 PM 33.8 °F 27.7 °F 26.6 °F 75% 30.29 in 10.0 mi ESE 6.9 mph - N/A   Clear
4:15 PM 32.0 °F 27.5 °F 26.6 °F 80% 30.29 in 10.0 mi SE 4.6 mph - N/A   Clear
4:35 PM 32.0 °F 27.5 °F 24.8 °F 75% 30.29 in 10.0 mi ESE 4.6 mph - N/A   Clear
4:55 PM 32.0 °F 27.5 °F 24.8 °F 75% 30.29 in 10.0 mi SE 4.6 mph - N/A   Clear
5:15 PM 32.0 °F 28.7 °F 26.6 °F 80% 30.28 in 10.0 mi SE 3.5 mph - N/A   Clear
5:35 PM 30.2 °F 25.4 °F 26.6 °F 86% 30.28 in 10.0 mi SE 4.6 mph - N/A   Clear
5:55 PM 32.0 °F 27.5 °F 26.6 °F 80% 30.28 in 10.0 mi SE 4.6 mph - N/A   Clear
6:15 PM 32.0 °F 27.5 °F 26.6 °F 80% 30.28 in 10.0 mi SE 4.6 mph - N/A   Clear
6:35 PM 30.2 °F - 26.6 °F 86% 30.28 in 10.0 mi Calm Calm - N/A   Clear
6:55 PM 30.2 °F 26.7 °F 26.6 °F 86% 30.28 in 10.0 mi SE 3.5 mph - N/A   Clear
7:15 PM 30.2 °F 26.7 °F 26.6 °F 86% 30.27 in 10.0 mi SE 3.5 mph - N/A   Clear
7:35 PM 30.2 °F - 26.6 °F 86% 30.26 in 10.0 mi Calm Calm - N/A   Clear
7:55 PM 30.2 °F - 26.6 °F 86% 30.26 in 10.0 mi Calm Calm - N/A   Clear
8:15 PM 30.2 °F - 26.6 °F 86% 30.26 in 10.0 mi Calm Calm - N/A   Clear
8:35 PM 30.2 °F 25.4 °F 26.6 °F 86% 30.26 in 10.0 mi SSE 4.6 mph - N/A   Clear
8:55 PM 30.2 °F 26.7 °F 28.4 °F 93% 30.25 in 10.0 mi SE 3.5 mph - N/A   Clear
9:15 PM 30.2 °F - 28.4 °F 93% 30.25 in 10.0 mi Calm Calm - N/A   Clear
9:35 PM 30.2 °F - 28.4 °F 93% 30.26 in 10.0 mi Calm Calm - N/A   Clear
9:55 PM 30.2 °F - 28.4 °F 93% 30.26 in 10.0 mi Calm Calm - N/A   Clear
10:15 PM 30.2 °F - 28.4 °F 93% 30.25 in 10.0 mi Calm Calm - N/A   Clear
10:35 PM 32.0 °F - 28.4 °F 87% 30.25 in 10.0 mi Calm Calm - N/A   Clear
10:55 PM 32.0 °F 27.5 °F 28.4 °F 87% 30.25 in 10.0 mi SE 4.6 mph - N/A   Clear
11:15 PM 32.0 °F 27.5 °F 28.4 °F 87% 30.25 in 10.0 mi SSE 4.6 mph - N/A   Clear
11:35 PM 32.0 °F 27.5 °F 30.2 °F 93% 30.25 in 10.0 mi SSE 4.6 mph - N/A   Clear
11:55 PM 32.0 °F 27.5 °F 30.2 °F 93% 30.25 in 10.0 mi SSE 4.6 mph - N/A   Clear